Location: Hains Lake
(37.8540°N, 99.8578°W)
Time: 22:57:45
(UTC+00:00)

deb Explorer IX - Pass Details

Date: 23 April 2021
Orbit: 541 x 1098 km, 38.8° (Epoch: 13 May)

Event Time Altitude Azimuth Distance (km) Brightness Sun altitude
Rises 13:12:27 0° 258° (WSW) 2,687 ? 14.6°
Reaches altitude 10° 13:14:37 10° 259° (W) 1,813 ? 15.0°
Maximum altitude 13:18:44 90° 196° (SSW) 578 ? 15.8°
Drops below altitude 10° 13:23:16 10° 80° (E) 1,991 ? 16.7°
Sets 13:25:45 0° 81° (E) 2,979 ? 17.2°
